Flag for Namibia Weather past 2 weeks in Swakopmund, Namibia

Now
68 °F

Mild.


Feels Like: 68 °F
Forecast: 54 / 71 °F
Wind: 14 mph from West

Location: Walvis Bay

Current Time: Sep 19, 2014 at 6:23:18 PM

Latest Report: Sep 19, 2014 at 5:00 PM


Visibility: N/A

Pressure: 30.01 "Hg

Humidity: 46%

Dew point: 46 °F

Location of SwakopmundLocation

Historic Weather in Swakopmund — Graph

°F

Swakopmund temperature yesterday

Maximum temperature yesterday: 72 °F (at 12:00 PM)
Minimum temperature yesterday: 46 °F (at 5:00 AM)
Average temperature yesterday: 57 °F

Past Weeks' High & Low Weather Summary

 TemperatureHumidityPressure
High100 °F (Sep 7, 6:00 PM)100% (Sep 6, 4:00 AM)30.15 "Hg (Sep 6, 4:00 AM)
Low43 °F (Sep 19, 6:00 AM)9% (Sep 7, 6:00 PM)29.89 "Hg (Sep 15, 7:00 AM)
Average58 °F75%30.03 "Hg
* Reported Sep 4 4:00 PM — Sep 19 5:00 PM, Swakopmund, Weather by CustomWeather, © 2014

Note: Actual official high and low records may vary slightly from our data, if they occured in-between our weather recording intervals... More about our weather records

Advertising

Swakopmund weather history for previous 24 hours

 ConditionsComfort  
Time TempWeatherWind HumidityBarometerVisibility
5:00 PM
Sep 19
68 °FMild.14 mph46%30.01 "HgN/A
4:00 PM70 °FSunny.9 mph43%30.04 "Hg10 mi
3:00 PM70 °FSunny.6 mph40%30.04 "Hg10 mi
2:00 PM68 °FSunny.6 mph46%30.07 "Hg10 mi
1:00 PM66 °FMild.8 mph49%30.09 "HgN/A
12:00 PM64 °FSunny.7 mph52%30.12 "Hg10 mi
11:00 AM61 °FSunny.8 mph59%30.12 "Hg10 mi
10:00 AM57 °FCool.10 mph67%30.15 "HgN/A
9:00 AM54 °FSunny.12 mph77%30.15 "Hg10 mi
8:00 AM48 °FSunny.8 mph87%30.15 "Hg10 mi
7:00 AM45 °FSunny.8 mph87%30.12 "Hg10 mi
6:00 AM43 °FClear.9 mph87%30.12 "Hg10 mi
5:00 AM45 °FClear.7 mph87%30.09 "Hg10 mi
4:00 AM45 °FQuite cool.7 mph81%30.09 "HgN/A
3:00 AM46 °FCool.3 mph82%30.09 "HgN/A
2:00 AM46 °FCool.5 mph76%30.12 "HgN/A
1:00 AM48 °FCool.3 mph76%30.12 "HgN/A
12:00 AM50 °FCool.5 mph67%30.12 "HgN/A
11:00 PM
Sep 18
54 °FCool.5 mph63%30.12 "HgN/A
10:00 PM55 °FRefreshingly cool.8 mph59%30.12 "HgN/A
9:00 PM57 °FRefreshingly cool.17 mph55%30.12 "HgN/A
8:00 PM59 °FRefreshingly cool.21 mph55%30.09 "HgN/A
7:00 PM63 °FMild.21 mph49%30.07 "HgN/A
Weather by CustomWeather, © 2014

See weather overviewHow to use our weather pages